Skip Page Navigation
NASA JPL Caltech
NASA Logo - Jet Propulsion Laboratory + View the NASA Portal
+ Center for Near-Earth Object Studies
JPL Home Earth Solar System Stars & Galaxies Technology
JPL Solar System Dynamics
BODIES ORBITS EPHEMERIDES TOOLS PHYSICAL DATA DISCOVERY FAQ SITE MAP

Significant website upgrade scheduled for September 27. More details available here.

JPL Small-Body Database Browser
Search: [ help ]  
79597 (1998 RN34)
Classification: Main-belt Asteroid          SPK-ID: 2079597
Ephemeris | Orbit Diagram | Orbital Elements | Mission Design | Physical Parameters | Discovery Circumstances ]

[ show orbit diagram ]
Orbital Elements at Epoch 2459396.5 (2021-Jul-01.0) TDB
Reference: JPL 27 (heliocentric ecliptic J2000)
 Element Value Uncertainty (1-sigma)   Units 
e .2166756095217746 4.6669e-08  
a 2.410932945464291 8.4511e-09 au
q 1.888542579989689 1.1233e-07 au
i 3.185074718606768 4.3818e-06 deg
node 57.98771236008098 7.4615e-05 deg
peri 324.8319851522768 7.5128e-05 deg
M 10.25429220730213 8.9866e-06 deg
tp 2459357.552524521698
(2021-May-23.05252452)
3.4045e-05 TDB
period 1367.338758125532
3.74
7.1894e-06
1.968e-08
d
yr
n .263285157288688 1.3843e-09 deg/d
Q 2.933323310938894 1.0282e-08 au
  Orbit Determination Parameters
   # obs. used (total)      869  
   data-arc span      8379 days (22.94 yr)  
   first obs. used      1998-08-23  
   last obs. used      2021-08-01  
   planetary ephem.      DE441  
   SB-pert. ephem.      SB441-N16  
   condition code      0  
   norm. resid. RMS      .52287  
   source      ORB  
   producer      Otto Matic  
   solution date      2021-Aug-25 23:31:42  

Additional Information
 Earth MOID = .892333 au 
 Jupiter MOID = 2.52502 au 
 T_jup = 3.485 
[ show covariance matrix ]

Ephemeris | Orbit Diagram | Orbital Elements | Mission Design | Physical Parameters | Discovery Circumstances ]

Physical Parameter Table
Parameter Symbol Value Units Sigma Reference Notes
absolute magnitude H 15.67   n/a E2021B10  

79597 (1998 RN34)          Discovered 1998-Sep-14 by LINEAR at Socorro
Reference: 20040504/Numbers.arcLast Updated: 2004-07-16
Ephemeris | Orbit Diagram | Orbital Elements | Mission Design | Physical Parameters | Discovery Circumstances ]
ABOUT SSD CREDITS/AWARDS PRIVACY/COPYRIGHT GLOSSARY LINKS
FirstGov 2021-Sep-21 21:54 UT
(server date/time)  
NASA Home Page
Site Manager:   Ryan S. Park
Webmaster  Alan B. Chamberlin